• In Deutschland
  • Länderverzeichnis
  • Für 7 Tage
  • Wassertemperatur
  • Satellitenkarten
  • Wetterkarte
  • Widgets
  • user-avatar
    Anmelden

    Stündliche Wetter Rheine

    Heute, 18 August, Samstag

    Zeit Temperatur Niederschläge Wind Luftdruck Luftfeuchtigkeit
    00:00 +14°C° 0 mm 0 m/S 762 mmHg 78%
    01:00 +14°C° 0 mm 1 m/S 762 mmHg 79%
    02:00 +14°C° 0 mm 1 m/S 762 mmHg 79%
    03:00 +14°C° 0 mm 2 m/S 762 mmHg 79%
    04:00 +15°C° 0 mm 2 m/S 762 mmHg 76%
    05:00 +15°C° 0 mm 2 m/S 762 mmHg 73%
    06:00 +16°C° 0 mm 3 m/S 762 mmHg 71%
    07:00 +18°C° 0 mm 3 m/S 762 mmHg 65%
    08:00 +20°C° 0 mm 4 m/S 762 mmHg 59%
    09:00 +22°C° 0 mm 4 m/S 762 mmHg 53%
    10:00 +23°C° 0 mm 4 m/S 762 mmHg 50%
    11:00 +25°C° 0 mm 5 m/S 762 mmHg 47%
    12:00 +26°C° 0 mm 5 m/S 762 mmHg 44%
    13:00 +26°C° 0 mm 5 m/S 762 mmHg 45%
    14:00 +26°C° 0 mm 4 m/S 762 mmHg 46%
    15:00 +26°C° 0 mm 4 m/S 761 mmHg 47%
    16:00 +25°C° 0 mm 4 m/S 761 mmHg 52%
    17:00 +24°C° 0 mm 3 m/S 762 mmHg 57%
    18:00 +22°C° 0 mm 3 m/S 762 mmHg 62%
    19:00 +21°C° 0 mm 3 m/S 762 mmHg 68%
    20:00 +19°C° 0 mm 2 m/S 762 mmHg 74%
    21:00 +18°C° 0 mm 2 m/S 763 mmHg 80%
    22:00 +17°C° 0 mm 2 m/S 763 mmHg 82%
    23:00 +17°C° 0 mm 2 m/S 763 mmHg 84%

    Morgen, 19 August, Sonntag

    Zeit Temperatur Niederschläge Wind Luftdruck Luftfeuchtigkeit
    00:00 +16°C° 0 mm 2 m/S 763 mmHg 86%
    01:00 +16°C° 0 mm 2 m/S 763 mmHg 88%
    02:00 +16°C° 0 mm 2 m/S 762 mmHg 89%
    03:00 +15°C° 0 mm 2 m/S 762 mmHg 91%
    04:00 +16°C° 0 mm 2 m/S 762 mmHg 88%
    05:00 +17°C° 0 mm 3 m/S 762 mmHg 85%
    06:00 +17°C° 0 mm 3 m/S 762 mmHg 82%
    07:00 +19°C° 0 mm 3 m/S 762 mmHg 75%
    08:00 +21°C° 0 mm 4 m/S 762 mmHg 68%
    09:00 +22°C° 0 mm 4 m/S 762 mmHg 61%
    10:00 +23°C° 0 mm 4 m/S 762 mmHg 58%
    11:00 +25°C° 0 mm 4 m/S 762 mmHg 55%
    12:00 +26°C° 0 mm 4 m/S 761 mmHg 53%
    13:00 +26°C° 0 mm 4 m/S 761 mmHg 52%
    14:00 +26°C° 0 mm 4 m/S 761 mmHg 51%
    15:00 +27°C° 0 mm 4 m/S 760 mmHg 50%
    16:00 +26°C° 0 mm 3 m/S 760 mmHg 55%
    17:00 +25°C° 0 mm 3 m/S 760 mmHg 59%
    18:00 +24°C° 0 mm 3 m/S 760 mmHg 64%
    19:00 +22°C° 0 mm 3 m/S 760 mmHg 68%
    20:00 +21°C° 0 mm 3 m/S 760 mmHg 72%
    21:00 +20°C° 0 mm 3 m/S 760 mmHg 76%
    22:00 +20°C° 0 mm 3 m/S 760 mmHg 76%
    23:00 +20°C° 0 mm 3 m/S 760 mmHg 77%

    übermorgen, 20 August, Montag

    Zeit Temperatur Niederschläge Wind Luftdruck Luftfeuchtigkeit
    00:00 +20°C° 0 mm 4 m/S 759 mmHg 77%
    01:00 +20°C° 0 mm 4 m/S 759 mmHg 79%
    02:00 +20°C° 0 mm 4 m/S 759 mmHg 80%
    03:00 +19°C° 0 mm 4 m/S 759 mmHg 82%
    04:00 +19°C° 0,1 mm 5 m/S 759 mmHg 84%
    05:00 +19°C° 0,1 mm 5 m/S 759 mmHg 86%
    06:00 +19°C° 0,1 mm 5 m/S 759 mmHg 87%
    07:00 +20°C° 0,1 mm 5 m/S 759 mmHg 86%
    08:00 +20°C° 0,1 mm 5 m/S 759 mmHg 84%
    09:00 +20°C° 0,1 mm 5 m/S 760 mmHg 82%
    10:00 +21°C° 0,1 mm 5 m/S 760 mmHg 80%
    11:00 +21°C° 0,1 mm 5 m/S 760 mmHg 77%
    12:00 +21°C° 0,1 mm 5 m/S 760 mmHg 75%
    13:00 +21°C° 0 mm 5 m/S 761 mmHg 71%
    14:00 +22°C° 0 mm 4 m/S 761 mmHg 68%
    15:00 +22°C° 0 mm 4 m/S 761 mmHg 64%
    16:00 +22°C° 0 mm 4 m/S 761 mmHg 66%
    17:00 +21°C° 0 mm 3 m/S 761 mmHg 67%
    18:00 +20°C° 0 mm 3 m/S 761 mmHg 69%
    19:00 +19°C° 0 mm 2 m/S 762 mmHg 74%
    20:00 +17°C° 0 mm 2 m/S 762 mmHg 80%
    21:00 +16°C° 0 mm 2 m/S 763 mmHg 86%
    22:00 +15°C° 0 mm 1 m/S 763 mmHg 87%
    23:00 +15°C° 0 mm 1 m/S 763 mmHg 89%

    21 August, Dienstag

    Zeit Temperatur Niederschläge Wind Luftdruck Luftfeuchtigkeit
    00:00 +14°C° 0 mm 1 m/S 763 mmHg 90%
    01:00 +14°C° 0 mm 1 m/S 763 mmHg 90%
    02:00 +14°C° 0 mm 1 m/S 763 mmHg 91%
    03:00 +14°C° 0 mm 1 m/S 763 mmHg 91%
    04:00 +14°C° 0 mm 1 m/S 763 mmHg 88%
    05:00 +15°C° 0 mm 1 m/S 763 mmHg 85%
    06:00 +16°C° 0 mm 1 m/S 763 mmHg 83%
    07:00 +19°C° 0 mm 1 m/S 763 mmHg 75%
    08:00 +20°C° 0 mm 1 m/S 763 mmHg 68%
    09:00 +22°C° 0 mm 1 m/S 763 mmHg 61%
    10:00 +24°C° 0 mm 1 m/S 763 mmHg 57%
    11:00 +25°C° 0 mm 1 m/S 763 mmHg 54%
    12:00 +26°C° 0 mm 1 m/S 763 mmHg 50%
    13:00 +27°C° 0 mm 1 m/S 762 mmHg 49%
    14:00 +25°C° 0 mm 0 m/S 762 mmHg 48%
    15:00 +25°C° 0 mm 0 m/S 762 mmHg 46%
    16:00 +27°C° 0 mm 1 m/S 762 mmHg 50%
    17:00 +26°C° 0 mm 1 m/S 762 mmHg 53%
    18:00 +25°C° 0 mm 1 m/S 762 mmHg 56%
    19:00 +24°C° 0 mm 1 m/S 762 mmHg 59%
    20:00 +23°C° 0 mm 2 m/S 762 mmHg 61%
    21:00 +21°C° 0 mm 2 m/S 762 mmHg 64%
    22:00 +20°C° 0 mm 2 m/S 762 mmHg 66%
    23:00 +19°C° 0 mm 2 m/S 762 mmHg 68%

    22 August, Mittwoch

    Zeit Temperatur Niederschläge Wind Luftdruck Luftfeuchtigkeit
    00:00 +19°C° 0 mm 2 m/S 762 mmHg 71%
    01:00 +18°C° 0 mm 2 m/S 762 mmHg 73%
    02:00 +18°C° 0 mm 2 m/S 761 mmHg 74%
    03:00 +18°C° 0 mm 2 m/S 761 mmHg 76%
    04:00 +18°C° 0 mm 2 m/S 761 mmHg 74%
    05:00 +19°C° 0 mm 2 m/S 761 mmHg 73%
    06:00 +19°C° 0 mm 2 m/S 761 mmHg 71%
    07:00 +21°C° 0 mm 2 m/S 761 mmHg 64%
    08:00 +25°C° 0 mm 2 m/S 761 mmHg 56%
    09:00 +27°C° 0 mm 2 m/S 761 mmHg 49%
    10:00 +28°C° 0 mm 2 m/S 760 mmHg 46%
    11:00 +29°C° 0 mm 2 m/S 760 mmHg 43%
    12:00 +30°C° 0 mm 2 m/S 760 mmHg 40%
    13:00 +30°C° 0 mm 2 m/S 759 mmHg 41%
    14:00 +29°C° 0 mm 1 m/S 759 mmHg 41%
    15:00 +29°C° 0 mm 1 m/S 759 mmHg 42%
    16:00 +29°C° 0 mm 1 m/S 758 mmHg 45%
    17:00 +28°C° 0 mm 1 m/S 758 mmHg 48%
    18:00 +27°C° 0 mm 1 m/S 758 mmHg 51%
    19:00 +26°C° 0 mm 1 m/S 758 mmHg 51%
    20:00 +25°C° 0 mm 1 m/S 758 mmHg 52%
    21:00 +25°C° 0 mm 1 m/S 758 mmHg 53%
    22:00 +24°C° 0 mm 1 m/S 758 mmHg 56%
    23:00 +23°C° 0 mm 1 m/S 758 mmHg 58%

    23 August, Donnerstag

    Zeit Temperatur Niederschläge Wind Luftdruck Luftfeuchtigkeit
    00:00 +23°C° 0 mm 1 m/S 757 mmHg 61%
    01:00 +22°C° 0 mm 1 m/S 757 mmHg 63%
    02:00 +22°C° 0 mm 1 m/S 757 mmHg 65%
    03:00 +21°C° 0 mm 1 m/S 756 mmHg 67%
    04:00 +22°C° 0 mm 1 m/S 756 mmHg 67%
    05:00 +22°C° 0 mm 1 m/S 756 mmHg 67%
    06:00 +23°C° 0 mm 1 m/S 756 mmHg 67%
    07:00 +24°C° 0 mm 1 m/S 756 mmHg 61%
    08:00 +26°C° 0 mm 2 m/S 755 mmHg 55%
    09:00 +28°C° 0 mm 2 m/S 755 mmHg 50%
    10:00 +29°C° 0 mm 3 m/S 755 mmHg 47%
    11:00 +30°C° 0 mm 4 m/S 754 mmHg 45%
    12:00 +32°C° 0 mm 4 m/S 754 mmHg 42%
    13:00 +32°C° 0 mm 5 m/S 754 mmHg 42%
    14:00 +32°C° 0 mm 5 m/S 753 mmHg 41%
    15:00 +32°C° 0 mm 5 m/S 753 mmHg 41%
    16:00 +29°C° 0 mm 5 m/S 753 mmHg 45%
    17:00 +28°C° 0 mm 5 m/S 753 mmHg 49%
    18:00 +27°C° 0 mm 4 m/S 753 mmHg 53%
    19:00 +25°C° 0,1 mm 4 m/S 753 mmHg 61%
    20:00 +22°C° 0,1 mm 4 m/S 753 mmHg 69%
    21:00 +20°C° 0,1 mm 3 m/S 753 mmHg 77%
    22:00 +19°C° 0 mm 3 m/S 753 mmHg 79%
    23:00 +19°C° 0 mm 3 m/S 753 mmHg 82%
    Mehr zeigen